TimeCEST,TemperatureF,Dew PointF,Humidity,Sea Level PressureIn,VisibilityMPH,Wind Direction,Wind SpeedMPH,Gust SpeedMPH,PrecipitationIn,Events,Conditions,WindDirDegrees,DateUTC
12:25 AM,48.2,42.8,82,29.62,6.2,Calm,Calm,-,N/A,,Mostly Cloudy,0,2013-05-15 22:25:00
12:55 AM,48.2,42.8,82,29.62,6.2,Calm,Calm,-,N/A,,Mostly Cloudy,0,2013-05-15 22:55:00
1:25 AM,48.2,44.6,87,29.59,6.2,Calm,Calm,-,N/A,,Mostly Cloudy,0,2013-05-15 23:25:00
1:55 AM,48.2,44.6,87,29.59,6.2,Variable,1.2,-,N/A,,Mostly Cloudy,0,2013-05-15 23:55:00
2:00 AM,47,44,86,29.62,9,,2.2,,,,Mostly Cloudy,,2013-05-16 00:00:00
2:25 AM,46.4,42.8,87,29.59,6.2,Variable,1.2,-,N/A,,Mostly Cloudy,0,2013-05-16 00:25:00
2:55 AM,46.4,42.8,87,29.59,6.2,Calm,Calm,-,N/A,,Mostly Cloudy,0,2013-05-16 00:55:00
3:25 AM,46.4,42.8,87,29.59,6.2,Calm,Calm,-,N/A,,Mostly Cloudy,0,2013-05-16 01:25:00
3:55 AM,46.4,42.8,87,29.59,6.2,Variable,1.2,-,N/A,,Mostly Cloudy,0,2013-05-16 01:55:00
4:25 AM,46.4,44.6,93,29.59,6.2,Variable,1.2,-,N/A,,Mostly Cloudy,0,2013-05-16 02:25:00
4:55 AM,46.4,44.6,93,29.56,6.2,Variable,2.3,-,N/A,,Mostly Cloudy,0,2013-05-16 02:55:00
5:00 AM,47,44,84,29.59,9,,2.2,,,,Scattered Clouds,,2013-05-16 03:00:00
5:25 AM,48.2,44.6,87,29.59,6.2,Variable,2.3,-,N/A,,Mostly Cloudy,0,2013-05-16 03:25:00
5:55 AM,48.2,44.6,87,29.59,6.2,Variable,2.3,-,N/A,,Mostly Cloudy,0,2013-05-16 03:55:00
6:25 AM,48.2,44.6,87,29.56,6.2,NE,4.6,-,N/A,Rain,Light Rain,40,2013-05-16 04:25:00
6:55 AM,48.2,46.4,93,29.56,6.2,NNE,4.6,-,N/A,Rain,Light Rain,20,2013-05-16 04:55:00
7:25 AM,48.2,46.4,93,29.56,6.2,NE,5.8,-,N/A,Rain,Light Rain,40,2013-05-16 05:25:00
7:55 AM,48.2,46.4,93,29.56,6.2,NE,6.9,-,N/A,Rain,Light Rain,40,2013-05-16 05:55:00
8:00 AM,48,46,91,29.57,6,NE,6.7,,,Rain,Light Rain,40,2013-05-16 06:00:00
8:25 AM,48.2,46.4,93,29.56,6.2,North,4.6,-,N/A,Rain,Light Rain,10,2013-05-16 06:25:00
8:48 AM,48.2,46.4,93,29.56,4.3,Variable,3.5,-,N/A,Rain,Rain,0,2013-05-16 06:48:00
8:55 AM,48.2,46.4,93,29.56,3.1,WNW,4.6,-,N/A,Rain,Rain,300,2013-05-16 06:55:00
9:25 AM,48.2,48.2,100,29.53,3.1,NW,5.8,-,N/A,Rain,Rain,320,2013-05-16 07:25:00
9:38 AM,48.2,48.2,100,29.53,2.5,NNW,5.8,-,N/A,Rain,Rain,330,2013-05-16 07:38:00
9:55 AM,48.2,48.2,100,29.53,2.5,NNW,5.8,-,N/A,Rain,Rain,340,2013-05-16 07:55:00
10:10 AM,48.2,48.2,100,29.53,-9999.0,NNW,4.6,-,N/A,Rain,Rain,340,2013-05-16 08:10:00
10:25 AM,48.2,48.2,100,29.53,-9999.0,North,5.8,-,N/A,Rain,Rain,350,2013-05-16 08:25:00
10:53 AM,48.2,48.2,100,29.50,2.2,North,4.6,-,N/A,Rain,Rain,360,2013-05-16 08:53:00
10:55 AM,48.2,48.2,100,29.50,-9999.0,North,4.6,-,N/A,Rain,Rain,360,2013-05-16 08:55:00
11:00 AM,48,48,100,,2,North,4.5,,,Rain,Rain,0,2013-05-16 09:00:00
11:25 AM,48.2,48.2,100,29.50,1.6,North,4.6,-,N/A,Rain,Rain,360,2013-05-16 09:25:00
11:55 AM,48.2,48.2,100,29.50,1.6,NW,4.6,-,N/A,Rain,Rain,320,2013-05-16 09:55:00
12:25 PM,48.2,48.2,100,29.50,1.4,NNW,6.9,-,N/A,Rain,Rain,330,2013-05-16 10:25:00
12:55 PM,48.2,48.2,100,29.50,1.9,North,5.8,-,N/A,Rain,Rain,350,2013-05-16 10:55:00
1:22 PM,50.0,50.0,100,29.47,1.9,North,6.9,-,N/A,Rain,Rain,350,2013-05-16 11:22:00
1:25 PM,50.0,50.0,100,29.47,1.9,North,6.9,-,N/A,Rain,Rain,350,2013-05-16 11:25:00
1:55 PM,50.0,50.0,100,29.47,1.9,North,6.9,-,N/A,Rain,Rain,350,2013-05-16 11:55:00
2:00 PM,49,49,100,29.49,2,North,6.7,,,Rain,Rain,350,2013-05-16 12:00:00
2:25 PM,50.0,50.0,100,29.47,1.9,NNW,5.8,-,N/A,Rain,Rain,340,2013-05-16 12:25:00
2:55 PM,50.0,50.0,100,29.47,1.6,Variable,3.5,-,N/A,Rain,Rain,0,2013-05-16 12:55:00
3:25 PM,50.0,50.0,100,29.47,1.6,Variable,3.5,-,N/A,Rain,Rain,0,2013-05-16 13:25:00
3:55 PM,50.0,50.0,100,29.47,1.6,Variable,3.5,-,N/A,Rain,Rain,0,2013-05-16 13:55:00
4:25 PM,50.0,50.0,100,29.44,1.6,WNW,4.6,-,N/A,Rain,Rain,300,2013-05-16 14:25:00
4:55 PM,51.8,51.8,100,29.44,1.6,WNW,4.6,-,N/A,Rain,Rain,300,2013-05-16 14:55:00
5:00 PM,51,51,99,29.47,2,,4.5,,,Rain,Heavy Rain,,2013-05-16 15:00:00
5:25 PM,50.0,50.0,100,29.44,1.9,West,4.6,-,N/A,Rain,Rain,280,2013-05-16 15:25:00
5:37 PM,50.0,50.0,100,29.44,1.6,West,5.8,-,N/A,Rain,Rain,280,2013-05-16 15:37:00
5:55 PM,50.0,50.0,100,29.44,2.2,West,5.8,-,N/A,Rain,Rain,270,2013-05-16 15:55:00
6:25 PM,50.0,50.0,100,29.44,2.2,West,6.9,-,N/A,Rain,Rain,260,2013-05-16 16:25:00
6:55 PM,48.2,48.2,100,29.44,2.2,West,5.8,-,N/A,Rain,Rain,270,2013-05-16 16:55:00
7:25 PM,48.2,48.2,100,29.44,2.5,West,6.9,-,N/A,,Overcast,270,2013-05-16 17:25:00
7:55 PM,48.2,48.2,100,29.47,1.9,WSW,8.1,-,N/A,,Overcast,250,2013-05-16 17:55:00
8:00 PM,48,48,100,29.49,2,WSW,8.9,,,Rain,Light Rain,250,2013-05-16 18:00:00
8:25 PM,48.2,48.2,100,29.47,1.9,West,4.6,-,N/A,,Light Drizzle,280,2013-05-16 18:25:00
8:55 PM,48.2,48.2,100,29.47,2.2,West,8.1,-,N/A,,Light Drizzle,260,2013-05-16 18:55:00
9:25 PM,48.2,46.4,93,29.47,1.9,WSW,9.2,-,N/A,,Overcast,250,2013-05-16 19:25:00
9:55 PM,46.4,46.4,100,29.47,1.9,WSW,8.1,-,N/A,,Overcast,240,2013-05-16 19:55:00
10:25 PM,46.4,46.4,100,29.50,1.2,WSW,8.1,-,N/A,,Overcast,250,2013-05-16 20:25:00
10:55 PM,46.4,46.4,100,29.50,0.9,WSW,6.9,-,N/A,,Overcast,240,2013-05-16 20:55:00
11:00 PM,47,47,99,29.52,1,WSW,6.7,,,,Mist,240,2013-05-16 21:00:00
11:16 PM,46.4,46.4,100,29.50,0.7,WSW,5.8,-,N/A,,Overcast,240,2013-05-16 21:16:00
11:25 PM,46.4,46.4,100,29.50,0.7,WSW,5.8,-,N/A,,Overcast,240,2013-05-16 21:25:00
11:55 PM,46.4,46.4,100,29.50,0.7,SW,8.1,-,N/A,,Overcast,230,2013-05-16 21:55:00